This demonstration page uses our WeatherBlox Daily Observations layout. Learn more.

Left ArrowRight Arrow

39.29038, -76.61219

Hourly Observations for November 27, 2022

Temp ( °F °C ) Dew Point ( °F °C ) Humidity (%) Winds ( mph kmh ) Pressure ( in mb ) Visibility ( mi km ) Precip ( " mm )
12:54 am 00:54 Cloudy 43 6.1 31 -0.6 62 62 Calm 29.98 1015 10 16 0.00 0.00
1:54 am 01:54 Cloudy 42 5.6 32 0 67 67 Calm 29.97 1015 10 16 0.00 0.00
2:54 am 02:54 Cloudy 40 4.4 32 0 73 73 Calm 29.95 1014 10 16 0.00 0.00
3:54 am 03:54 Cloudy 41 5 32 0 70 70 Calm 29.92 1013 10 16 0.00 0.00
4:54 am 04:54 Cloudy 40 4.4 33 0.6 76 76 Calm 29.91 1013 10 16 0.00 0.00
5:54 am 05:54 Cloudy 41 5 34 1.1 76 76 Calm 29.89 1012 10 16 0.00 0.00
6:54 am 06:54 Cloudy 43 6.1 35 1.7 73 73 Calm 29.88 1012 10 16 0.00 0.00
7:54 am 07:54 Cloudy 47 8.3 37 2.8 68 68 ESE 3 6 29.85 1011 10 16 0.00 0.00
8:54 am 08:54 Cloudy 49 9.4 39 3.9 68 68 Calm 29.82 1010 10 16 0.00 0.00
9:54 am 09:54 Mostly Cloudy 50 10 42 5.6 74 74 Calm 29.81 1010 10 16 0.01 0.13
10:54 am 10:54 Cloudy with Light Rain 53 11.7 45 7.2 74 74 S 7 11 29.77 1008 10 16 0.01 0.25
11:47 am 11:47 Cloudy with Light Rain 50 10 47 8.3 89 89 VRB 3 6 29.71 1006 10 16 0.02 0.51
11:54 am 11:54 Cloudy with Light Rain 50 10 47 8.3 89 89 VRB 5 7 29.70 1006 7 11 0.03 0.76
12:25 pm 12:25 Cloudy with Light Rain 50 10 48 8.9 93 93 SSW 5 7 29.68 1005 3 4 0.05 1.27
12:52 pm 12:52 Cloudy with Light Rain 50 10 48 9 93 93 S 3 6 29.65 1004 1 2 0.16 4.06
12:58 pm 12:58 Cloudy with Light Rain 50 10 48 8.9 93 93 ESE 7 11 29.62 1003 3 5 0.01 0.25
1:13 pm 13:13 Cloudy with Light Rain 50 10 48 8.9 93 93 ESE 12 19 29.58 1002 4 6 0.02 0.51
1:54 pm 13:54 Cloudy 50 10 49 9.4 96 96 NNW 5 7 29.54 1001 7 11 0.05 1.27
2:54 pm 14:54 Cloudy with Light Rain 51 10.6 50 10 96 96 Calm 29.51 999 4 6 0.01 0.13
3:01 pm 15:01 Cloudy with Light Rain 51 10.6 50 10 96 96 VRB 3 6 29.51 999 2 2 0.01 0.13
3:19 pm 15:19 Cloudy with Light Rain 51 10.6 50 10 96 96 E 3 6 29.50 999 1 1 0.01 0.25
3:37 pm 15:37 Cloudy with Light Rain 51 10.6 50 10 96 96 ESE 6 9 29.48 998 1 1 0.02 0.51
3:54 pm 15:54 Cloudy with Light Rain 51 10.6 50 10 96 96 Calm 29.47 998 1 2 0.02 0.51
4:26 pm 16:26 Cloudy with Mist and Fog 52 11.1 50 10 93 93 Calm 29.45 997 1 1 0.01 0.13
4:54 pm 16:54 Cloudy with Mist and Fog 51 10.6 50 10 96 96 Calm 29.42 996 1 1 0.01 0.13
5:39 pm 17:39 Cloudy with Fog 51 10.6 50 10 96 96 WSW 3 6 29.43 997 1 1 0.00 0.00
5:54 pm 17:54 Partly Cloudy with Patchy Fog 55 12.8 54 12.2 96 96 SSW 9 15 29.43 997 6 10 0.00 0.00
6:21 pm 18:21 Mostly Cloudy 58 14.4 56 13.3 93 93 SW 13 20 29.43 997 10 16 0.00 0.00
6:54 pm 18:54 Mostly Cloudy 58 14.4 56 13.3 93 93 W 10 17 29.47 998 10 16 0.00 0.00
7:54 pm 19:54 Mostly Cloudy 56 13.3 53 11.7 90 90 W 12 19 29.48 998 10 16 0.00 0.00
8:54 pm 20:54 Cloudy 56 13.3 53 11.7 90 90 WSW 8 13 29.50 999 10 16 0.00 0.00
9:54 pm 21:54 Cloudy 54 12.2 52 11.1 93 93 W 3 6 29.52 1000 8 13 0.00 0.00
10:54 pm 22:54 Cloudy with Mist and Fog 54 12.2 52 11.1 93 93 WSW 5 7 29.52 1000 4 6 0.00 0.00
11:36 pm 23:36 Cloudy with Mist and Fog 53 11.7 52 11.1 96 96 WSW 5 7 29.53 1000 1 2 0.00 0.00
11:54 pm 23:54 Cloudy with Mist and Fog 53 11.7 52 11.1 96 96 WSW 6 9 29.54 1000 1 1 0.00 0.00

Powered by AerisWeather